STARLINK-35266

Last updated on Mon Oct 20 2025 00:02:07 GMT+0000 (Coordinated Universal Time)

1 65804U 25218P 25292.26225290 .00105144 00000+0 19079-2 0 9991 2 65804 97.6025 152.8403 0001453 94.7566 265.3851 15.49207810 3647
UTC large
Height (km)
Speed (km/s)
/
Latitude / Longitude
Inclination (degrees)
Orbital Period (minutes)
Azimuth
Elevation
Range (km)
Doppler Factor

Next 0 passes for location: London (51.5072 / 0.1276)

Sorry there are no passes over London.